Location: G�ndlingen
(48.0142°N, 7.6396°E)
Time: 19:16:34
(UTC+00:00)

Cosmos 1825 - Pass Details

Date: 05 July 2020
Orbit: 502 x 509 km, 82.5° (Epoch: 12 August)

Event Time Altitude Azimuth Distance (km) Brightness Sun altitude
Exits shadow 21:58:03 26° 117° (ESE) 1,024 3.3 -16.1°
Maximum altitude 21:58:57 29° 91° (E) 947 3.3 -16.2°
Drops below altitude 10° 22:02:17 10° 30° (NNE) 1,738 5.4 -16.4°
Sets 22:04:35 0° 19° (NNE) 2,629 6.6 -16.5°
